Weather History for Twin Falls, ID

Change the Weather History Date:

Thursday, April 25, 2013

  Actual Average Record
Temperature  
Mean Temperature 51 °F -  
Max Temperature 69 °F 63 °F 79 °F (2012)
Min Temperature 32 °F 37 °F 28 °F (1985)
Degree Days  
Heating Degree Days 14 15  
Month to date heating degree days 460 439  
Since 1 July heating degree days 5408 5728  
Cooling Degree Days 0 0  
Month to date cooling degree days 0 0  
Year to date cooling degree days 0 0  
Growing Degree Days 2 (Base 50)    
Moisture  
Dew Point 18 °F    
Average Humidity 30    
Maximum Humidity 48    
Minimum Humidity 11    
Precipitation  
Precipitation 0.00 in 0.04 in 0.36 in (2014)
Month to date precipitation 0.94 0.92  
Year to date precipitation 2.50 3.75  
Sea Level Pressure  
Sea Level Pressure 29.96 in    
Wind  
Wind Speed 11 mph (SW)    
Max Wind Speed 21 mph    
Max Gust Speed 28 mph    
Visibility 10 miles    
Events      
T = Trace of Precipitation, MM = Missing Value Source: NWS Daily Summary

Daily Weather History Graph

Daily Weather History Graph

Search for Another Location

Airport:

Trip Planner

Search our weather history database for the weather conditions in past years. The results will help you decide how hot, cold, wet, or windy it might be!

Date:

Astronomy

Apr. 25, 2013 Rise Set
Actual Time 6:40 AM MDT 8:31 PM MDT
Civil Twilight 6:10 AM MDT 9:01 PM MDT
Nautical Twilight 5:34 AM MDT 9:38 PM MDT
Astronomical Twilight 4:54 AM MDT 10:18 PM MDT
Moon 8:50 PM MDT (4/25) 6:26 AM MDT (4/25)
Length of Visible Light 14h 50m
Length of Day
13h 50m
Full, 100% of the Moon is Illuminated
Apr 25
Full
Apr 25
Full
May 2
Last Quarter
May 9
New
May 17
First Quarter

Hourly Weather History & Observations

Time (MDT) Temp. Windchill Dew Point Humidity Pressure Visibility Wind Dir Wind Speed Gust Speed Precip Events Conditions
12:53 AM 37.9 °F 30.9 °F 19.0 °F 47% 30.05 in 10.0 mi South 10.4 mph - N/A   Clear
1:53 AM 39.0 °F 32.3 °F 19.9 °F 46% 30.02 in 10.0 mi South 10.4 mph - N/A   Clear
2:53 AM 41.0 °F 34.3 °F 19.0 °F 41% 29.99 in 10.0 mi South 11.5 mph - N/A   Clear
3:53 AM 37.9 °F 30.0 °F 19.0 °F 47% 29.97 in 10.0 mi South 12.7 mph - N/A   Clear
4:53 AM 37.9 °F 30.5 °F 17.1 °F 43% 29.97 in 10.0 mi South 11.5 mph - N/A   Clear
5:53 AM 37.0 °F - 17.1 °F 44% 29.98 in 10.0 mi Calm Calm - N/A   Clear
6:53 AM 37.0 °F 31.6 °F 17.1 °F 44% 29.98 in 10.0 mi SE 6.9 mph - N/A   Clear
7:53 AM 42.1 °F 35.2 °F 18.0 °F 38% 29.97 in 10.0 mi South 12.7 mph - N/A   Clear
8:53 AM 50.0 °F - 19.9 °F 31% 29.99 in 10.0 mi SSW 5.8 mph - N/A   Clear
9:53 AM 55.9 °F - 17.1 °F 22% 29.99 in 10.0 mi SSW 6.9 mph - N/A   Clear
10:53 AM 60.1 °F - 17.1 °F 19% 29.97 in 10.0 mi South 4.6 mph - N/A   Clear
11:53 AM 63.0 °F - 24.1 °F 23% 29.96 in 10.0 mi NNW 9.2 mph - N/A   Clear
12:53 PM 64.9 °F - 23.0 °F 20% 29.95 in 10.0 mi NW 10.4 mph - N/A   Clear
1:53 PM 64.9 °F - 15.1 °F 15% 29.94 in 10.0 mi WNW 9.2 mph - N/A   Clear
2:53 PM 64.9 °F - 12.9 °F 13% 29.93 in 10.0 mi West 15.0 mph - N/A   Clear
3:53 PM 66.9 °F - 14.0 °F 13% 29.92 in 10.0 mi West 11.5 mph 21.9 mph N/A   Clear
4:53 PM 66.9 °F - 14.0 °F 13% 29.91 in 10.0 mi West 9.2 mph - N/A   Clear
5:53 PM 68.0 °F - 12.9 °F 12% 29.90 in 10.0 mi West 20.7 mph 27.6 mph N/A   Clear
6:53 PM 66.9 °F - 15.1 °F 14% 29.91 in 10.0 mi West 19.6 mph 25.3 mph N/A   Clear
7:53 PM 63.0 °F - 17.1 °F 17% 29.90 in 10.0 mi West 13.8 mph - N/A   Clear
8:53 PM 54.0 °F - 19.9 °F 26% 29.93 in 10.0 mi SW 10.4 mph - N/A   Clear
9:53 PM 53.1 °F - 18.0 °F 25% 29.94 in 10.0 mi SW 12.7 mph - N/A   Clear
10:53 PM 52.0 °F - 19.0 °F 27% 29.95 in 10.0 mi SW 13.8 mph - N/A   Clear
11:53 PM 50.0 °F - 19.9 °F 31% 29.96 in 10.0 mi SSW 15.0 mph - N/A   Clear